Location: Newark
(39.6867°N, 100.6772°W)
Time: 10:36:08
(UTC+00:00)

Explorer 11/Cluster Stage 4 - Pass Details

Date: 30 October 2019
Orbit: 467 x 1259 km, 28.8° (Epoch: 17 November)

Event Time Altitude Azimuth Distance (km) Brightness Sun altitude
Rises 10:02:56 0° 215° (SW) 3,758 - -36.1°
Reaches altitude 10° 10:07:19 10° 191° (SSW) 2,616 - -35.3°
Maximum altitude 10:10:14 14° 163° (SSE) 2,229 - -34.8°
Exits shadow 10:11:22 13° 151° (SSE) 2,219 9.0 -34.6°
Drops below altitude 10° 10:12:56 10° 134° (SE) 2,345 9.3 -34.3°
Sets 10:16:27 0° 108° (ESE) 3,090 10.4 -33.6°
